Regional Weather Roundup
Issued by NWS

Home | Current Version | Previous Version | Text Only | Print | Product List | Glossary On
Versions: 1 2 3 4 5 6 7 8 9 10 11 12 13 14 15 16 17 18 19 20 21 22 23 24 25 26 27 28 29 30 31 32 33 34 35 36 37 38 39 40 41 42 43 44 45 46 47 48 49 50
000
ASHW40 PHFO 220643
RWRHI

WEATHER ROUNDUP FOR HAWAII
NATIONAL WEATHER SERVICE HONOLULU HI
800 PM HST TUE OCT 21 2014

THIS IS AN AUTOMATED REPORT THAT HAS NOT BEEN QUALITY CONTROLLED.

NOTE..."FAIR" INDICATES FEW OR NO CLOUDS BELOW 12,000 FEET WITH NO
SIGNIFICANT WEATHER AND/OR OBSTRUCTIONS TO VISIBILITY.

* - THESE SITES REPORT LIMITED FIELDS

HIZ001>004-220700-
KAUAI-NIIHAU-

CITY           SKY/WX    TMP DP  RH WIND       PRES   REMARKS
LIHUE APT      CLOUDY    77  73  88 VRB3      30.00R
PORT ALLEN*      N/A     77 N/A N/A E8          N/A
POIPU*           N/A     77 N/A N/A N3          N/A
PRINCEVILLE*     N/A     77 N/A N/A MISG        N/A
KOKOLE POINT*  NOT AVBL
MOLOAA DAIRY*  NOT AVBL
WAIMEA HTS*      N/A     75  66  73 NW1G7       N/A
PUU OPAE*        N/A     72  68  88 CALM        N/A
PUU LUA*       NOT AVBL
MAKAHA RIDGE*  NOT AVBL
$$

HIZ005>011-220700-
OAHU-

CITY           SKY/WX    TMP DP  RH WIND       PRES   REMARKS
HONOLULU       MOCLDY    80  73  79 NE10      29.99R
KALAELOA       MOCLDY    78  71  79 E3        30.00R
KANEOHE MCB    LGT RAIN  78  74  87 CALM      30.00R FOG
WHEELER FIELD  FAIR      76  69  78 E2        30.02
BELLOWS*         N/A    N/A N/A N/A E15         N/A
KAHUKU*          N/A    N/A N/A N/A E2          N/A
WHEELER*       NOT AVBL
WAIANAE HARBOR NOT AVBL
DILLINGHAM*      N/A     79  72  78 SE2         N/A
KAHUKU TRN*      N/A     73  72  94 E5G12       N/A
KAWAILOA*        N/A     73  68  83 E3G13       N/A
KII*             N/A     79  73  83 E10G20      N/A
MAKUA RANGE*     N/A     75  72  88 E3          N/A
OAHU FOREST NW   N/A     70  70 100 N14G26      N/A
SCHOFIELD BRK*   N/A     75  68  78 SE1         N/A
SCHOFIELD S*   NOT AVBL
WAIANAE VLY*     N/A     75  66  73 N7G18       N/A
KUAOKALA*        N/A     75  68  78 CALM        N/A
HONOULIUULI*   NOT AVBL
MOKUOLOE IS*     N/A    N/A N/A N/A MISG        N/A
PALEHUA*         N/A     82  72  69 CALM        N/A
WAIAWA PHB*    NOT AVBL
$$

HIZ012>013-220700-
MOLOKAI-

CITY           SKY/WX    TMP DP  RH WIND       PRES   REMARKS
MOLOKAI AIRPT  MOCLDY    77  74  90 NE9       30.01R
KALAUPAPA      NOT AVBL
MAKAPULAPAI*     N/A     79  73  83 E13G21      N/A
MOLOKAI 1*       N/A     68  66  94 N2G8        N/A
PUU ALII*        N/A     63  62  98 E2G14       N/A
$$

HIZ016-220700-
KAHOOLAWE-

CITY           SKY/WX    TMP DP  RH WIND       PRES   REMARKS
KAHOOLAWE*       N/A     73 N/A N/A E13G18      N/A
HAKIOAWA*      NOT AVBL
HONOKANAIA*      N/A     79  70  73 NE6         N/A
KANELOA*         N/A     79  68  69 E12G23      N/A
KEALIALALO*    NOT AVBL
LUA MAKIKA*    NOT AVBL
$$

HIZ014>015-220700-
LANAI-

CITY           SKY/WX    TMP DP  RH WIND       PRES   REMARKS
LANAI CITY     FAIR      74  73  96 CALM      30.06R
LANAI 1*         N/A     73  73 100 NE12G20     N/A
$$

HIZ017>028-220700-
MAUI-

CITY           SKY/WX    TMP DP  RH WIND       PRES   REMARKS
KAHULUI        PTCLDY    79  68  69 E10       29.98
KAPALUA-W MAUI NOT AVBL
HANA AIRPORT   MOCLDY    75  73  94 SE2       30.04S
HANA*            N/A     77 N/A N/A SE3         N/A
HALEAKALA SUMM   N/A     48  34  57 E13         N/A
MAALAEA BAY*   NOT AVBL
HALEAKALA*     NOT AVBL
KAUPO GAP*       N/A     64  55  72 VRB5G12     N/A
KULA 1*          N/A     56  54  93 NE1         N/A
$$

HIZ023>026-220700-
BIG ISLAND OF HAWAII COAST AND LOWER SLOPES-

CITY           SKY/WX    TMP DP  RH WIND       PRES   REMARKS
KAILUA KONA    CLOUDY    82  72  71 SW7       29.97R
HILO           CLEAR     76  70  82 SW5       30.01R
HONOKAA*       NOT AVBL
KAWAIHAE MWT*    N/A     82 N/A N/A S1          N/A
KAWAIHAE*        N/A     82 N/A N/A S1          N/A
SOUTH POINT*     N/A     72 N/A N/A NE9         N/A
UPOLU AIRPORT*   N/A    N/A N/A N/A E13G20      N/A
KAMUELA*       MOCLDY    68  66  94 CALM      30.13R
HAKALAU*         N/A     52  46  80 SW3         N/A
KALOKO-HONOKO*   N/A     81  72  74 SW3       29.98R
PALI 2*          N/A     66 -11   4 N5G10       N/A
KEALAKOMO*       N/A     81  70  69 NE7         N/A
KAUPULEHU*       N/A     72  64  78 S3G9        N/A
KAPAPALA*        N/A     68  66  92 CALM        N/A
LOWER KAHUKU*  NOT AVBL
PUHE CS*       NOT AVBL
PUHO CS*         N/A     78  69  73 NE3         N/A
PTA KEAMUKU*     N/A     66  64  94 CALM        N/A
WAIKOLOA*        N/A     75  68  78 W2          N/A
$$

HIZ027>028-220700-
BIG ISLAND OF HAWAII INTERIOR AND SUMMMITS-

CITY           SKY/WX    TMP DP  RH WIND       PRES   REMARKS
BRADSHAW FIELD FOG       55  55 100 NW1       30.37S VSB 3/8
MK VISITOR CEN NOT AVBL
MAUNA KEA*       N/A     37   1  22 N8          N/A
MAUNA LOA*       N/A    N/A N/A N/A MISG        N/A
MAUNA LOA 1*   NOT AVBL
PTA KIPUKA*      N/A     61  57  88 N2          N/A
PTA RANGE 17*    N/A     57  57 100 W2G12       N/A
PTA WEST*        N/A    N/A N/A N/A NW3         N/A
NENE CABIN*    NOT AVBL
AHUMOA*          N/A     55  55 100 E3          N/A
PTA PORTABLE*  NOT AVBL
PUU MALI*      NOT AVBL
$$

HIC003-220700-
NORTHWEST ISLANDS-

CITY           SKY/WX    TMP DP  RH WIND       PRES   REMARKS
MIDWAY ISLAND  CLEAR     81  77  89 S3        29.95R
MIDWAY NOS*    NOT AVBL
FRENCH FRIGATE NOT AVBL
$$

PHZ110>124-180-220700-
BUOY REPORTS

STATION/POSITION TIME  TEMP    WIND        PRES    WAVE   SWELL
                       AIR SEA DIR/SP/G            HT/PER HT/DIR
                 (UTC) (F)     (DEG/KT/KT) (MB)    (FT/S) (FT/D)
BUOY 51001       NOT AVBL
BUOY 51101       NOT AVBL
BUOY 51100       0600   79 80   90/ 14/ 16 1017.2R
BUOY 51003       0600   81 82  120/ 16/ 21 1013.8R   8/13   7
BUOY 51004       0548   80 81   80/ 17/ 19 1014.8R   8/12   7/340
BARBERS PT BUOY  NOT AVBL
WAIMEA BAY BUOY  0600      82                N/A     6/12   3/350
KAILUA BAY BUOY  0600      82                N/A     7/13   3/ 10
LANAI BUOY       0600      82                N/A     3/13   2/200
BARBERS PT 2     0600      82                N/A     5/13   3/210
PAUWELA MAUI     0600      80                N/A     6/13   3/350
HILO             0600      81                N/A     7/13   5/360
KANEOHE BAY BUOY NOT AVBL
HANALEI KAUAI    NOT AVBL
KAHULUI HARBOR   0600   80 81   70/  5/ 12 1015.4R
HONOLULU HARBOR  0600   80     120/  1/  5 1016.1R
KILO NALU        NOT AVBL
HILO HARBOR      0600   77     200/  4/  6 1016.1R
MOKUOLOE         0600   78 82  140/  2/  3 1016.2R
NAWILIWILI       0600      82                N/A
WHOTS BUOY       NOT AVBL
BUOY 51028       NOT AVBL
$$

......................KEY........................................
  SKY/WX - SKY CONDITIONS/PRESENT WEATHER
  TMP    - TEMPERATURE IN FAHRENHEIT
  DWPT   - DEWPOINT IN FAHRENHEIT
  RH     - RELATIVE HUMIDITY IN PERCENT
  WIND   - DIRECTION AND SPEED /MPH FOR ISLANDS...KTS FOR BUOYS/
  PRES   - MEAN SEA LEVEL PRESSURE IN INCHES OF HG
  VSB    - VISIBILITY IN MILES
  HX     - HEAT INDEX
  WCI    - WIND CHILL INDEX
  VRB    - VARIABLE WIND DIRECTION
  N/A    - NOT AVAILABLE



USA.gov is the U.S. government's official web portal to all federal, state and local government web resources and services.